Location: Brienzwiler
(46.7508°N, 8.1014°E)
Time: 16:46:10
(UTC+00:00)

Cosmos 1452 Rocket - Pass Details

Date: 05 July 2020
Orbit: 768 x 774 km, 74.1° (Epoch: 11 August)

Event Time Altitude Azimuth Distance (km) Brightness Sun altitude
Rises 23:25:39 0° 337° (NNW) 3,256 8.0 -20.6°
Reaches altitude 10° 23:28:02 10° 337° (NNW) 2,324 7.0 -20.6°
Maximum altitude 23:33:19 83° 250° (WSW) 781 3.4 -20.6°
Enters shadow 23:35:04 44° 167° (SSE) 1,064 3.7 -20.6°
